Location: Aleksandria
(48.6657°N, 33.1137°E)
Time: 05:10:06
(UTC+02:00)

BlueWalker 3 - Visible Passes

Search period start: 29 November 2023 00:00
Search period end: 09 December 2023 00:00
Orbit: 489 x 504 km, 53.2° (Epoch: 28 November)

Date Brightness Start Highest point End Pass type
(mag) Time Alt. Az. Time Alt. Az. Time Alt. Az.
29 Nov 4.7 03:58:11 17° ENE 03:58:11 17° ENE 03:59:13 10° ENE visible
29 Nov 2.0 05:32:45 34° NW 05:34:19 71° NNE 05:38:07 10° ESE visible
30 Nov 5.3 03:36:36 10° ENE 03:36:36 10° ENE 03:36:38 10° ENE visible
30 Nov 1.9 05:11:09 58° NNW 05:11:43 70° NNE 05:15:33 10° ESE visible
01 Dec 2.3 04:49:34 62° ENE 04:49:34 62° ENE 04:52:57 10° ESE visible
01 Dec 3.1 06:24:08 11° W 06:27:18 29° SW 06:30:39 10° SSE visible
02 Dec 3.5 04:28:01 35° E 04:28:01 35° E 04:30:21 10° ESE visible
02 Dec 3.1 06:02:35 18° W 06:04:42 30° SW 06:08:03 10° SSE visible
03 Dec 4.5 04:06:30 19° ESE 04:06:30 19° ESE 04:07:43 10° ESE visible
03 Dec 3.0 05:41:04 26° WSW 05:42:04 30° SW 05:45:26 10° SSE visible
04 Dec 5.3 03:45:02 10° ESE 03:45:02 10° ESE 03:45:04 10° ESE visible
04 Dec 3.0 05:19:36 30° SW 05:19:36 30° SW 05:22:49 10° SSE visible
05 Dec 3.6 04:58:10 24° S 04:58:10 24° S 05:00:10 10° SSE visible
06 Dec 4.5 04:36:49 14° SSE 04:36:49 14° SSE 04:37:30 10° SSE visible
